Regional Weather Roundup
Issued by NWS

Home | Current Version | Previous Version | Text Only | Print | Product List | Glossary Off
Versions: 1 2 3 4 5 6 7 8 9 10 11 12 13 14 15 16 17 18 19 20 21 22 23 24 25 26 27 28 29 30 31 32 33 34 35 36 37 38 39 40 41 42 43 44 45 46 47 48 49 50

000
ASUS43 KIND 280859
RWRIN

WEATHER ROUNDUP FOR INDIANA
NATIONAL WEATHER SERVICE INDIANAPOLIS IN
500 AM EDT TUE JUL 28 2015

NOTE: "FAIR" INDICATES FEW OR NO CLOUDS BELOW 12,000 FEET WITH NO
SIGNIFICANT WEATHER AND/OR OBSTRUCTIONS TO VISIBILITY.

* - STATION DOES NOT REPORT WEATHER SUCH AS PRECIPITATION OR FOG.

+ - STATION NOT QUALITY CONTROLLED BY THE NATIONAL WEATHER SERVICE.
    USE DATA WITH CAUTION...ESPECIALLY DEWPOINT AND RELATIVE
    HUMIDITY OBSERVATIONS.

INZ001>003-010>013-019-020-281000-
NORTHWEST INDIANA

CITY           SKY/WX    TMP DP  RH WIND       PRES   REMARKS

$$

LMZ046-743>745-281000-
SOUTHERN LAKE MICHIGAN

STATION/POSITION TIME  TEMP    WIND        PRES    WAVE
                       AIR SEA DIR/SP/G            HT
                 (UTC) (F)     (DEG/KT/KT) (MB)    (FT)
BURNS HARBOR     0800   77     130/  9/ 12 1016.3S
MICHIGAN CITY    0800   73     110/  6/  8   N/A
5NW MICH CITY    0800   74 74  140/  4/  6   N/A     1

$$

INZ004-005-014>016-021>024-281000-
NORTH CENTRAL INDIANA

CITY           SKY/WX    TMP DP  RH WIND       PRES   REMARKS
GOSHEN         CLEAR     63  60  90 CALM      30.02S
SOUTH BEND     NOT AVBL

$$

INZ006>009-017-018-025>027-281000-
NORTHEAST INDIANA

CITY           SKY/WX    TMP DP  RH WIND       PRES   REMARKS
ANGOLA *+      CLEAR     61  50  67 CALM      30.03S
FORT WAYNE     NOT AVBL

$$

INZ028-029-035-036-043>045-051>053-281000-
WEST CENTRAL INDIANA

CITY           SKY/WX    TMP DP  RH WIND       PRES   REMARKS
GREENCASTLE +  PTCLDY    72  68  88 CALM      29.98S FOG
LAFAYETTE      NOT AVBL
TERRE HAUTE    MOCLDY    73  72  96 E5        29.95F FOG

$$

INZ030>032-037>040-046>048-054>057-064-065-281000-
CENTRAL INDIANA

CITY           SKY/WX    TMP DP  RH WIND       PRES   REMARKS
INDIANAPOLIS   NOT AVBL
-EAGLE CREEK   CLEAR     73  71  93 CALM      29.97F
MT COMFORT *+    N/A     70 N/A N/A CALM      29.99S
SHELBYVILLE    PTCLDY    72  69  90 N3        29.97S FOG

$$

INZ033-034-041-042-049-050-058-059-281000-
EAST CENTRAL INDIANA

CITY           SKY/WX    TMP DP  RH WIND       PRES   REMARKS
MUNCIE         PTCLDY    69  66  90 CALM      29.99F

$$

INZ060-061-067>069-081>083-085>088-281000-
SOUTHWEST INDIANA

CITY           SKY/WX    TMP DP  RH WIND       PRES   REMARKS
EVANSVILLE     NOT AVBL

$$

INZ062-063-066-070>080-084-089>092-281000-
SOUTH CENTRAL AND SOUTHEAST INDIANA

CITY           SKY/WX    TMP DP  RH WIND       PRES   REMARKS
BLOOMINGTON    PTCLDY    73  71  93 CALM      29.97S
MADISON *+     PTCLDY    73  70  88 CALM      30.00R

$$




USA.gov is the U.S. government's official web portal to all federal, state and local government web resources and services.